Flag for U.S.A. Weather past 2 weeks in Chesapeake, Virginia, U.S.A.

Now
88 °F

Scattered clouds.


Feels Like: 94 °F
Forecast: 71 / 87 °F
Wind: 5 mph from West

Location: Chesapeake Municipal Airport

Current Time: Sep 1, 2015 at 2:51:32 PM

Latest Report: Sep 1, 2015 at 2:15 PM


Visibility: N/A

Pressure: 30.06 "Hg

Humidity: 59%

Dew point: 72 °F

Location of ChesapeakeLocation

Historic Weather in Chesapeake — Graph

°F

Chesapeake temperature yesterday

Maximum temperature yesterday: 79 °F (at 9:55 AM)
Minimum temperature yesterday: 73 °F (at 3:55 AM)
Average temperature yesterday: 75 °F

Past Weeks' High & Low Weather Summary

 TemperatureHumidityPressure
High93 °F (Aug 17, 2:35 PM)100% (Aug 18, 6:35 AM)30.23 "Hg (Aug 18, 6:35 AM)
Low57 °F (Aug 29, 5:35 AM)24% (Aug 21, 4:37 AM)29.87 "Hg (Aug 24, 4:15 PM)
Average78 °F76%30.04 "Hg
* Reported Aug 17 1:15 PM — Sep 1 1:35 PM, Chesapeake, Weather by CustomWeather, © 2015

Note: Actual official high and low records may vary slightly from our data, if they occured in-between our weather recording intervals... More about our weather records

Advertising

Chesapeake weather history for previous 24 hours

 ConditionsComfort  
Time TempWeatherWind HumidityBarometerVisibility
1:35 PM
Tue, Sep 1
86 °FScattered clouds.3 mph62%30.07 "Hg10 mi
1:15 PM86 °FScattered clouds.No wind66%30.07 "Hg10 mi
12:55 PM84 °FScattered clouds.3 mph70%30.08 "Hg10 mi
12:35 PM82 °FPartly sunny.No wind70%30.09 "Hg10 mi
12:15 PM82 °FOvercast.No wind70%30.10 "Hg10 mi
11:55 AM82 °FOvercast.3 mph74%30.10 "Hg10 mi
11:15 AM81 °FMostly cloudy.No wind79%30.11 "Hg10 mi
10:55 AM81 °FMostly cloudy.No wind79%30.11 "Hg10 mi
10:35 AM81 °FMore clouds than sun.No wind79%30.10 "Hg10 mi
10:15 AM79 °FOvercast.No wind84%30.09 "Hg10 mi
9:55 AM79 °FOvercast.No wind84%30.09 "Hg10 mi
9:35 AM79 °FOvercast.5 mph84%30.08 "Hg10 mi
9:15 AM77 °FOvercast.3 mph89%30.08 "Hg10 mi
8:55 AM75 °FOvercast.3 mph94%30.08 "Hg10 mi
8:35 AM75 °FOvercast.No wind94%30.07 "Hg10 mi
8:15 AM75 °FOvercast.No wind94%30.07 "Hg10 mi
7:55 AM73 °FOvercast.No wind100%30.06 "Hg7 mi
7:35 AM73 °FOvercast.No wind94%30.06 "Hg7 mi
7:15 AM72 °FOvercast.No wind100%30.06 "Hg7 mi
6:55 AM72 °FFog.No wind100%30.06 "Hg4 mi
6:35 AM72 °FFog.No wind100%30.06 "Hg2 mi
6:15 AM72 °FFog.No wind94%30.05 "Hg1 mi
5:55 AM72 °FPassing clouds.No wind100%30.05 "Hg7 mi
5:35 AM73 °FClear.No wind94%30.05 "Hg10 mi
5:15 AM73 °FFog.No wind94%30.04 "Hg2 mi
4:55 AM73 °FFog.No wind94%30.04 "Hg5 mi
4:35 AM73 °FOvercast.No wind100%30.05 "Hg7 mi
4:15 AM73 °FOvercast.No wind100%30.04 "Hg7 mi
3:55 AM73 °FOvercast.No wind100%30.05 "Hg10 mi
3:35 AM73 °FMostly cloudy.No wind94%30.05 "Hg7 mi
3:15 AM73 °FLow clouds.No wind94%30.06 "Hg7 mi
2:55 AM73 °FLow clouds.No wind94%30.05 "Hg7 mi
2:35 AM72 °FFog.No wind100%30.06 "Hg5 mi
2:15 AM72 °FPassing clouds.No wind100%30.06 "Hg7 mi
1:55 AM72 °FPassing clouds.No wind100%30.06 "Hg10 mi
1:35 AM73 °FPassing clouds.No wind100%30.07 "Hg10 mi
1:15 AM73 °FClear.No wind94%30.07 "Hg10 mi
12:55 AM73 °FPassing clouds.No wind94%30.07 "Hg7 mi
11:55 PM
Mon, Aug 31
75 °FMostly cloudy.No wind94%30.08 "Hg10 mi
10:55 PM75 °FOvercast.No wind94%30.09 "Hg10 mi
10:35 PM75 °FMostly cloudy.No wind94%30.09 "Hg10 mi
10:15 PM73 °FPartly cloudy.No wind100%30.09 "Hg10 mi
9:55 PM73 °FPassing clouds.No wind94%30.09 "Hg7 mi
9:35 PM75 °FPassing clouds.No wind94%30.09 "Hg10 mi
9:15 PM75 °FMostly cloudy.No wind94%30.08 "Hg10 mi
8:55 PM75 °FMostly cloudy.No wind94%30.08 "Hg10 mi
8:35 PM75 °FMostly cloudy.No wind94%30.08 "Hg10 mi
8:15 PM75 °FMostly cloudy.No wind94%30.08 "Hg10 mi
7:55 PM75 °FMore clouds than sun.No wind94%30.08 "Hg10 mi
7:35 PM77 °FOvercast.No wind89%30.08 "Hg7 mi
7:15 PM77 °FCloudy.No wind83%30.08 "Hg10 mi
6:55 PM77 °FMore clouds than sun.No wind83%30.08 "Hg10 mi
6:15 PM77 °FMostly cloudy.3 mph83%30.09 "Hg10 mi
5:15 PM77 °FMore clouds than sun.No wind83%30.10 "Hg10 mi
4:55 PM77 °FOvercast.No wind79%30.10 "Hg10 mi
4:35 PM77 °FMore clouds than sun.No wind79%30.11 "Hg10 mi
4:15 PM77 °FCloudy.6 mph74%30.11 "Hg10 mi
3:55 PM77 °FLight rain. More clouds than sun.7 mph74%30.12 "Hg7 mi
3:15 PM79 °FSunny.3 mph79%30.11 "Hg10 mi
2:55 PM79 °FLight rain. Sunny.3 mph79%30.10 "Hg10 mi
2:35 PM79 °FSunny.3 mph79%30.10 "Hg10 mi
2:15 PM77 °FSunny.6 mph89%30.09 "Hg10 mi
Weather by CustomWeather, © 2015

See weather overviewHow to use our weather pages